Regional Weather Roundup
Issued by NWS Mt. Holly, NJ

Home | Current Version | Previous Version | Text Only | Print | Product List | Glossary On
Versions: 1 2 3 4 5 6 7 8 9 10 11 12 13 14 15 16 17 18 19 20 21 22 23 24 25 26 27 28 29 30 31 32 33 34 35 36 37 38 39 40 41 42 43 44 45 46 47 48 49 50
000
ASUS41 KPHI 190511
RWRPHI

REGIONAL WEATHER ROUNDUP
NATIONAL WEATHER SERVICE MOUNT HOLLY NJ
100 AM EDT SUN APR 19 2015

NOTE:  "FAIR" INDICATES FEW OR NO CLOUDS BELOW 12,000 FEET WITH NO
SIGNIFICANT WEATHER AND/OR OBSTRUCTIONS TO VISIBILITY.

 * = STATION DOES NOT REPORT PRECIPITATION (E.G. RAIN, SNOW, ETC.)
        OR FOG.

NJZ015>026-190600-
SOUTHERN NEW JERSEY

CITY           SKY/WX    TMP DP  RH WIND       PRES   REMARKS
POMONA         MOCLDY    60  47  61 N8        30.05R
MILLVILLE      CLOUDY    56  50  80 CALM      30.04R
WRIGHTSTOWN    MOCLDY    58  30  33 NE8       30.04R
MOUNT HOLLY    MOCLDY    64  27  24 N10       30.07R
TRENTON        MOCLDY    62  24  23 NE14      30.08R

$$
NJZ001>014-190600-
NORTHERN NEW JERSEY

CITY           SKY/WX    TMP DP  RH WIND       PRES   REMARKS
SUSSEX         MOCLDY    54  25  32 CALM      30.12R
ANDOVER*         N/A     56  26  31 VRB6      30.09S
MORRISTOWN     MOCLDY    61  18  18 N7        30.08S
NEWARK         MOCLDY    62  22  21 N13G24    30.08R
TETERBORO      PTCLDY    60  26  27 NW7       30.07R
CALDWELL       MOCLDY    59  22  24 NE5       30.09R
SOMERVILLE     MOCLDY    62  25  24 N10       30.07R
ALLAIRE*       MOCLDY    63  28  27 N7        30.08R
TOMS RIVER*    MOCLDY    52  45  76 CALM      30.07R

$$
PAZ043-044-047-054-055-060>062-066>071-190600-
EASTERN PENNSYLVANIA

CITY           SKY/WX    TMP DP  RH WIND       PRES   REMARKS
PHILADELPHIA   MOCLDY    66  26  22 N12       30.07R
NORTH PHILA    MOCLDY    64  22  20 N12       30.09R
BLUE BELL      MOCLDY    63  28  27 CALM      30.08R
DOYLESTOWN     MOCLDY    58  25  28 VRB7      30.08R
QUAKERTOWN*    MOCLDY    59  28  31 NE8       30.09R
POTTSTOWN      MOCLDY    59  25  27 NE5       30.09R
LANCASTER      MOCLDY    58  30  34 E6        30.07R
COATESVILLE    CLOUDY    61  32  33 NE5       30.08R
READING        MOCLDY    61  22  22 NE5       30.07R
ALLENTOWN      MOCLDY    58  28  32 NE10      30.08R
MOUNT POCONO   MOCLDY    51  24  34 N12G22    30.08R
HAZLETON       MOCLDY    54  27  35 N9        30.12F
WILKES BARRE   PTCLDY    51  29  42 NE5       30.11F

$$
DEZALL-MDZ008-012-015-019-020-190600-
DELAWARE AND EASTERN MARYLAND

CITY           SKY/WX    TMP DP  RH WIND       PRES   REMARKS
WILMINGTON     CLOUDY    66  39  37 NE14      30.06R
DOVER          CLOUDY    61  52  72 NW6       30.00R
GEORGETOWN     MOCLDY    60  52  74 SW8       30.01S
EASTON         MOCLDY    62  58  86 SW5       30.05S
PATUXENT       PTCLDY    60  54  80 SW7       30.02S
OCEAN CITY     PTCLDY    57  56  96 SW3       30.01S FOG
WALLOPS ISLAND PTCLDY    54  53  97 SW8       30.03R FOG
SALISBURY      PTCLDY    55  52  89 CALM      30.02R

$$
PAZ001-021-NYZ056-072-MDZ011-DCZ001-190600-
OTHER NEARBY LOCATIONS

CITY           SKY/WX    TMP DP  RH WIND       PRES   REMARKS
HARRISBURG     MOCLDY    63  31  30 NE7       30.06S
STATE COLLEGE  MOCLDY    55  26  32 NE10G16   30.11R
WILLIAMSPORT   MOCLDY    57  24  28 N5        30.12R
BINGHAMTON     CLEAR     46  24  42 NE9       30.14S
NEW YORK CITY  PTCLDY    63  25  23 N8        30.10R
BALTIMORE      CLOUDY    65  47  52 CALM      30.00S
WASHINGTON DC  MOCLDY    65  56  72 S5        30.02S

$$



USA.gov is the U.S. government's official web portal to all federal, state and local government web resources and services.